Time,TemperatureF,DewpointF,PressureIn,WindDirection,WindDirectionDegrees,WindSpeedMPH,WindSpeedGustMPH,Humidity,HourlyPrecipIn,Conditions,Clouds,dailyrainin,SoftwareType,DateUTC
2013-05-06 00:02:00,48.0,39.0,30.10,East,91,11.0,18.0,70,0.00,,,0.00,,2013-05-06 04:02:00,
2013-05-06 00:12:00,48.0,39.0,30.10,East,91,11.0,18.0,70,0.00,,,0.00,,2013-05-06 04:12:00,
2013-05-06 00:23:00,47.0,38.0,30.11,ESE,107,14.0,19.0,71,0.00,,,0.00,,2013-05-06 04:23:00,
2013-05-06 00:32:00,47.0,38.0,30.10,East,91,12.0,23.0,72,0.00,,,0.00,,2013-05-06 04:32:00,
2013-05-06 00:43:00,47.0,38.0,30.10,East,91,12.0,23.0,72,0.00,,,0.00,,2013-05-06 04:43:00,
2013-05-06 00:52:00,47.0,38.0,30.10,East,91,12.0,23.0,72,0.00,,,0.00,,2013-05-06 04:52:00,
2013-05-06 01:02:00,46.0,38.0,30.11,East,98,6.0,20.0,74,0.00,,,0.00,,2013-05-06 05:02:00,
2013-05-06 01:12:00,46.0,38.0,30.11,East,98,6.0,20.0,74,0.00,,,0.00,,2013-05-06 05:12:00,
2013-05-06 01:22:00,46.0,39.0,30.11,East,94,9.0,19.0,75,0.00,,,0.00,,2013-05-06 05:22:00,
2013-05-06 01:32:00,45.0,38.0,30.10,East,88,7.0,15.0,77,0.00,,,0.00,,2013-05-06 05:32:00,
2013-05-06 01:42:00,45.0,38.0,30.10,East,88,7.0,15.0,77,0.00,,,0.00,,2013-05-06 05:42:00,
2013-05-06 01:52:00,45.0,38.0,30.10,ENE,71,4.0,18.0,77,0.00,,,0.00,,2013-05-06 05:52:00,
2013-05-06 02:02:00,44.0,38.0,30.10,SE,126,10.0,16.0,80,0.00,,,0.00,,2013-05-06 06:02:00,
2013-05-06 02:12:00,44.0,38.0,30.10,SE,126,10.0,16.0,80,0.00,,,0.00,,2013-05-06 06:12:00,
2013-05-06 02:21:00,44.0,39.0,30.10,East,96,11.0,16.0,81,0.00,,,0.00,,2013-05-06 06:21:00,
2013-05-06 02:32:00,44.0,39.0,30.10,East,96,11.0,16.0,81,0.00,,,0.00,,2013-05-06 06:32:00,
2013-05-06 02:42:00,44.0,39.0,30.10,East,96,11.0,16.0,81,0.00,,,0.00,,2013-05-06 06:42:00,
2013-05-06 02:52:00,44.0,39.0,30.10,East,96,11.0,16.0,81,0.00,,,0.00,,2013-05-06 06:52:00,
2013-05-06 03:01:00,43.0,39.0,30.08,ESE,111,6.0,18.0,85,0.00,,,0.00,,2013-05-06 07:01:00,
2013-05-06 03:11:00,43.0,39.0,30.08,ESE,111,6.0,18.0,85,0.00,,,0.00,,2013-05-06 07:11:00,
2013-05-06 03:22:00,43.0,39.0,30.08,SE,144,12.0,16.0,86,0.00,,,0.00,,2013-05-06 07:22:00,
2013-05-06 03:32:00,43.0,39.0,30.07,ESE,105,7.0,14.0,86,0.00,,,0.00,,2013-05-06 07:32:00,
2013-05-06 03:42:00,43.0,39.0,30.07,ESE,105,7.0,14.0,86,0.00,,,0.00,,2013-05-06 07:42:00,
2013-05-06 03:52:00,42.0,38.0,30.07,ESE,107,9.0,16.0,87,0.00,,,0.00,,2013-05-06 07:52:00,
2013-05-06 04:02:00,42.0,39.0,30.07,ESE,109,14.0,16.0,88,0.00,,,0.00,,2013-05-06 08:02:00,
2013-05-06 04:12:00,42.0,39.0,30.07,ESE,109,14.0,16.0,88,0.00,,,0.00,,2013-05-06 08:12:00,
2013-05-06 04:22:00,42.0,39.0,30.07,ESE,109,14.0,16.0,88,0.00,,,0.00,,2013-05-06 08:22:00,
2013-05-06 04:32:00,42.0,39.0,30.07,SE,134,8.0,14.0,90,0.00,,,0.00,,2013-05-06 08:32:00,
2013-05-06 04:42:00,42.0,39.0,30.07,SE,134,8.0,14.0,90,0.00,,,0.00,,2013-05-06 08:42:00,
2013-05-06 04:52:00,42.0,39.0,30.06,East,100,6.0,18.0,90,0.00,,,0.00,,2013-05-06 08:52:00,
2013-05-06 05:02:00,42.0,39.0,30.07,ESE,119,6.0,18.0,90,0.00,,,0.00,,2013-05-06 09:02:00,
2013-05-06 05:11:00,42.0,39.0,30.07,ESE,119,6.0,18.0,90,0.00,,,0.00,,2013-05-06 09:11:00,
2013-05-06 05:22:00,42.0,39.0,30.07,ESE,119,6.0,18.0,90,0.00,,,0.00,,2013-05-06 09:22:00,
2013-05-06 05:33:00,41.0,38.0,30.07,East,85,15.0,18.0,90,0.00,,,0.00,,2013-05-06 09:33:00,
2013-05-06 05:43:00,41.0,38.0,30.07,East,85,15.0,18.0,90,0.00,,,0.00,,2013-05-06 09:43:00,
2013-05-06 05:53:00,41.0,38.0,30.08,East,91,10.0,20.0,90,0.00,,,0.00,,2013-05-06 09:53:00,
2013-05-06 06:03:00,41.0,38.0,30.08,East,91,10.0,20.0,90,0.00,,,0.00,,2013-05-06 10:03:00,
2013-05-06 06:12:00,41.0,38.0,30.08,East,91,10.0,20.0,90,0.00,,,0.00,,2013-05-06 10:12:00,
2013-05-06 06:22:00,41.0,38.0,30.07,East,86,13.0,17.0,90,0.00,,,0.00,,2013-05-06 10:22:00,
2013-05-06 06:33:00,41.0,38.0,30.07,East,89,6.0,16.0,89,0.00,,,0.00,,2013-05-06 10:33:00,
2013-05-06 06:42:00,41.0,38.0,30.07,East,89,6.0,16.0,89,0.00,,,0.00,,2013-05-06 10:42:00,
2013-05-06 06:52:00,41.0,38.0,30.07,East,89,6.0,16.0,89,0.00,,,0.00,,2013-05-06 10:52:00,
2013-05-06 07:02:00,41.0,38.0,30.07,East,89,6.0,16.0,89,0.00,,,0.00,,2013-05-06 11:02:00,
2013-05-06 07:12:00,41.0,38.0,30.07,East,89,6.0,16.0,89,0.00,,,0.00,,2013-05-06 11:12:00,
2013-05-06 07:22:00,41.0,38.0,30.07,SE,132,5.0,15.0,89,0.00,,,0.00,,2013-05-06 11:22:00,
2013-05-06 07:32:00,41.0,38.0,30.08,East,79,8.0,17.0,89,0.00,,,0.00,,2013-05-06 11:32:00,
2013-05-06 07:42:00,41.0,38.0,30.08,East,79,8.0,17.0,89,0.00,,,0.00,,2013-05-06 11:42:00,
2013-05-06 07:52:00,41.0,38.0,30.08,SE,139,11.0,15.0,90,0.00,,,0.00,,2013-05-06 11:52:00,
2013-05-06 08:02:00,42.0,39.0,30.08,ESE,107,6.0,14.0,89,0.00,,,0.00,,2013-05-06 12:02:00,
2013-05-06 08:12:00,42.0,39.0,30.08,ESE,107,6.0,14.0,89,0.00,,,0.00,,2013-05-06 12:12:00,
2013-05-06 08:22:00,42.0,39.0,30.08,ESE,120,3.0,18.0,90,0.00,,,0.00,,2013-05-06 12:22:00,
2013-05-06 08:32:00,43.0,41.0,30.08,East,90,10.0,15.0,91,0.00,,,0.00,,2013-05-06 12:32:00,
2013-05-06 08:42:00,43.0,41.0,30.08,East,90,10.0,15.0,91,0.00,,,0.00,,2013-05-06 12:42:00,
2013-05-06 08:52:00,43.0,41.0,30.08,East,90,10.0,15.0,91,0.00,,,0.00,,2013-05-06 12:52:00,
2013-05-06 09:01:00,45.0,43.0,30.08,SE,146,7.0,25.0,93,0.00,,,0.00,,2013-05-06 13:01:00,
2013-05-06 09:11:00,45.0,43.0,30.08,SE,146,7.0,25.0,93,0.00,,,0.00,,2013-05-06 13:11:00,
2013-05-06 09:21:00,45.0,43.0,30.07,SE,146,12.0,19.0,94,0.00,,,0.00,,2013-05-06 13:21:00,
2013-05-06 09:32:00,47.0,45.0,30.08,NE,47,9.0,23.0,94,0.00,,,0.00,,2013-05-06 13:32:00,
2013-05-06 09:42:00,47.0,45.0,30.08,NE,47,9.0,23.0,94,0.00,,,0.00,,2013-05-06 13:42:00,
2013-05-06 09:52:00,47.0,45.0,30.08,ESE,115,6.0,29.0,93,0.00,,,0.00,,2013-05-06 13:52:00,
2013-05-06 10:02:00,48.0,46.0,30.09,ESE,119,18.0,24.0,94,0.00,,,0.00,,2013-05-06 14:02:00,
2013-05-06 10:11:00,48.0,46.0,30.09,ESE,119,18.0,24.0,94,0.00,,,0.00,,2013-05-06 14:11:00,
2013-05-06 10:21:00,48.0,46.0,30.09,SE,142,12.0,23.0,92,0.00,,,0.00,,2013-05-06 14:21:00,
2013-05-06 10:32:00,49.0,46.0,30.08,East,94,12.0,23.0,91,0.00,,,0.00,,2013-05-06 14:32:00,
2013-05-06 10:42:00,49.0,46.0,30.08,East,94,12.0,23.0,91,0.00,,,0.00,,2013-05-06 14:42:00,
2013-05-06 10:51:00,49.0,46.0,30.08,East,94,12.0,23.0,91,0.00,,,0.00,,2013-05-06 14:51:00,
2013-05-06 11:01:00,51.0,48.0,30.09,East,97,9.0,22.0,89,0.00,,,0.00,,2013-05-06 15:01:00,
2013-05-06 11:11:00,51.0,48.0,30.09,East,97,9.0,22.0,89,0.00,,,0.00,,2013-05-06 15:11:00,
2013-05-06 11:21:00,51.0,48.0,30.09,East,97,9.0,22.0,89,0.00,,,0.00,,2013-05-06 15:21:00,
2013-05-06 11:33:00,53.0,49.0,30.09,East,82,10.0,28.0,85,0.00,,,0.00,,2013-05-06 15:33:00,
2013-05-06 11:43:00,53.0,49.0,30.09,East,82,10.0,28.0,85,0.00,,,0.00,,2013-05-06 15:43:00,
2013-05-06 11:53:00,53.0,49.0,30.09,East,82,10.0,28.0,85,0.00,,,0.00,,2013-05-06 15:53:00,
2013-05-06 12:03:00,53.0,49.0,30.09,East,82,10.0,28.0,85,0.00,,,0.00,,2013-05-06 16:03:00,
2013-05-06 12:13:00,53.0,49.0,30.09,East,82,10.0,28.0,85,0.00,,,0.00,,2013-05-06 16:13:00,
2013-05-06 12:33:00,53.0,49.0,30.09,SE,145,7.0,23.0,87,0.00,,,0.00,,2013-05-06 16:33:00,
2013-05-06 12:42:00,53.0,49.0,30.09,SE,145,7.0,23.0,87,0.00,,,0.00,,2013-05-06 16:42:00,
2013-05-06 12:52:00,53.0,49.0,30.09,ENE,78,14.0,27.0,87,0.00,,,0.00,,2013-05-06 16:52:00,
2013-05-06 13:03:00,54.0,50.0,30.08,East,80,15.0,24.0,87,0.00,,,0.00,,2013-05-06 17:03:00,
2013-05-06 13:12:00,54.0,50.0,30.08,East,80,15.0,24.0,87,0.00,,,0.00,,2013-05-06 17:12:00,
2013-05-06 13:23:00,54.0,50.0,30.08,East,80,15.0,24.0,87,0.00,,,0.00,,2013-05-06 17:23:00,
2013-05-06 13:32:00,55.0,51.0,30.08,ESE,119,11.0,24.0,86,0.00,,,0.00,,2013-05-06 17:32:00,
2013-05-06 13:42:00,55.0,51.0,30.08,ESE,119,11.0,24.0,86,0.00,,,0.00,,2013-05-06 17:42:00,
2013-05-06 13:52:00,55.0,51.0,30.09,ENE,76,9.0,26.0,86,0.00,,,0.00,,2013-05-06 17:52:00,
2013-05-06 14:01:00,56.0,52.0,30.08,SSE,161,12.0,18.0,85,0.00,,,0.00,,2013-05-06 18:01:00,
2013-05-06 14:12:00,56.0,52.0,30.08,SSE,161,12.0,18.0,85,0.00,,,0.00,,2013-05-06 18:12:00,
2013-05-06 14:22:00,56.0,52.0,30.08,SSE,161,12.0,18.0,85,0.00,,,0.00,,2013-05-06 18:22:00,
2013-05-06 14:32:00,55.0,51.0,30.08,East,94,10.0,20.0,86,0.00,,,0.00,,2013-05-06 18:32:00,
2013-05-06 14:43:00,55.0,51.0,30.08,East,94,10.0,20.0,86,0.00,,,0.00,,2013-05-06 18:43:00,
2013-05-06 14:52:00,55.0,51.0,30.08,East,94,10.0,20.0,86,0.00,,,0.00,,2013-05-06 18:52:00,
2013-05-06 15:01:00,56.0,52.0,30.07,ESE,105,5.0,19.0,86,0.00,,,0.00,,2013-05-06 19:01:00,
2013-05-06 15:11:00,56.0,52.0,30.07,ESE,105,5.0,19.0,86,0.00,,,0.00,,2013-05-06 19:11:00,
2013-05-06 15:22:00,55.0,51.0,30.07,East,89,5.0,19.0,86,0.00,,,0.00,,2013-05-06 19:22:00,
2013-05-06 15:32:00,55.0,51.0,30.07,East,89,5.0,19.0,86,0.00,,,0.00,,2013-05-06 19:32:00,
2013-05-06 15:42:00,55.0,51.0,30.07,East,89,5.0,19.0,86,0.00,,,0.00,,2013-05-06 19:42:00,
2013-05-06 15:52:00,56.0,52.0,30.06,SE,143,10.0,21.0,86,0.00,,,0.00,,2013-05-06 19:52:00,
2013-05-06 16:02:00,55.0,51.0,30.06,East,86,12.0,17.0,87,0.00,,,0.00,,2013-05-06 20:02:00,
2013-05-06 16:11:00,55.0,51.0,30.06,East,86,12.0,17.0,87,0.00,,,0.00,,2013-05-06 20:11:00,
2013-05-06 16:21:00,55.0,52.0,30.05,ESE,109,6.0,16.0,88,0.00,,,0.00,,2013-05-06 20:21:00,
2013-05-06 16:32:00,55.0,52.0,30.05,ESE,109,6.0,16.0,88,0.00,,,0.00,,2013-05-06 20:32:00,
2013-05-06 16:42:00,55.0,52.0,30.05,ESE,109,6.0,16.0,88,0.00,,,0.00,,2013-05-06 20:42:00,
2013-05-06 16:52:00,54.0,51.0,30.05,ESE,113,5.0,17.0,91,0.00,,,0.00,,2013-05-06 20:52:00,
2013-05-06 17:01:00,53.0,51.0,30.05,ESE,103,6.0,15.0,94,0.00,,,0.00,,2013-05-06 21:01:00,
2013-05-06 17:11:00,53.0,51.0,30.05,ESE,103,6.0,15.0,94,0.00,,,0.00,,2013-05-06 21:11:00,
2013-05-06 17:21:00,52.0,51.0,30.05,ESE,102,12.0,12.0,97,0.00,,,0.00,,2013-05-06 21:21:00,
2013-05-06 17:33:00,52.0,51.0,30.05,ESE,104,7.0,13.0,98,0.00,,,0.00,,2013-05-06 21:33:00,
2013-05-06 17:43:00,52.0,51.0,30.05,ESE,104,7.0,13.0,98,0.00,,,0.00,,2013-05-06 21:43:00,
2013-05-06 17:53:00,52.0,51.0,30.05,East,101,7.0,17.0,98,0.00,,,0.00,,2013-05-06 21:53:00,
2013-05-06 18:03:00,52.0,51.0,30.05,ESE,114,3.0,17.0,98,0.00,,,0.00,,2013-05-06 22:03:00,
2013-05-06 18:12:00,52.0,51.0,30.05,ESE,114,3.0,17.0,98,0.00,,,0.00,,2013-05-06 22:12:00,
2013-05-06 18:22:00,52.0,51.0,30.05,East,99,4.0,14.0,98,0.00,,,0.00,,2013-05-06 22:22:00,
2013-05-06 18:33:00,52.0,51.0,30.05,East,99,4.0,14.0,98,0.00,,,0.00,,2013-05-06 22:33:00,
2013-05-06 18:45:00,52.0,51.0,30.05,East,99,4.0,14.0,98,0.00,,,0.00,,2013-05-06 22:45:00,
2013-05-06 18:52:00,52.0,51.0,30.05,East,99,4.0,14.0,98,0.00,,,0.00,,2013-05-06 22:52:00,
2013-05-06 19:03:00,52.0,52.0,30.05,East,96,6.0,14.0,99,0.01,,,0.01,,2013-05-06 23:03:00,
2013-05-06 19:12:00,52.0,52.0,30.05,East,96,6.0,14.0,99,0.01,,,0.01,,2013-05-06 23:12:00,
2013-05-06 19:22:00,52.0,52.0,30.05,East,96,6.0,14.0,99,0.01,,,0.01,,2013-05-06 23:22:00,
2013-05-06 19:32:00,52.0,52.0,30.05,East,96,6.0,14.0,99,0.01,,,0.01,,2013-05-06 23:32:00,
2013-05-06 19:42:00,52.0,52.0,30.05,East,96,6.0,14.0,99,0.01,,,0.01,,2013-05-06 23:42:00,
2013-05-06 19:52:00,51.0,51.0,30.05,East,100,3.0,12.0,100,0.02,,,0.02,,2013-05-06 23:52:00,
2013-05-06 20:01:00,51.0,51.0,30.05,East,100,3.0,12.0,100,0.02,,,0.02,,2013-05-07 00:01:00,
2013-05-06 20:12:00,51.0,51.0,30.05,East,100,3.0,12.0,100,0.02,,,0.02,,2013-05-07 00:12:00,
2013-05-06 20:21:00,51.0,51.0,30.06,East,82,3.0,14.0,100,0.02,,,0.03,,2013-05-07 00:21:00,
2013-05-06 20:32:00,51.0,51.0,30.05,East,97,3.0,13.0,100,0.02,,,0.03,,2013-05-07 00:32:00,
2013-05-06 20:42:00,51.0,51.0,30.05,East,97,3.0,13.0,100,0.02,,,0.03,,2013-05-07 00:42:00,
2013-05-06 20:52:00,51.0,51.0,30.05,East,99,9.0,19.0,100,0.01,,,0.03,,2013-05-07 00:52:00,
2013-05-06 21:01:00,51.0,51.0,30.05,East,83,9.0,15.0,100,0.00,,,0.03,,2013-05-07 01:01:00,
2013-05-06 21:11:00,51.0,51.0,30.05,East,83,9.0,15.0,100,0.00,,,0.03,,2013-05-07 01:11:00,
2013-05-06 21:21:00,51.0,51.0,30.05,East,83,9.0,15.0,100,0.00,,,0.03,,2013-05-07 01:21:00,
2013-05-06 21:32:00,51.0,51.0,30.05,ESE,117,6.0,16.0,100,0.01,,,0.04,,2013-05-07 01:32:00,
2013-05-06 21:42:00,51.0,51.0,30.05,ESE,117,6.0,16.0,100,0.01,,,0.04,,2013-05-07 01:42:00,
2013-05-06 21:53:00,51.0,51.0,30.05,ESE,117,6.0,16.0,100,0.01,,,0.04,,2013-05-07 01:53:00,
2013-05-06 22:02:00,51.0,51.0,30.06,East,86,9.0,17.0,100,0.01,,,0.04,,2013-05-07 02:02:00,
2013-05-06 22:11:00,51.0,51.0,30.06,East,86,9.0,17.0,100,0.01,,,0.04,,2013-05-07 02:11:00,
2013-05-06 22:22:00,51.0,51.0,30.06,East,86,9.0,17.0,100,0.01,,,0.04,,2013-05-07 02:22:00,
2013-05-06 22:32:00,51.0,51.0,30.06,East,90,13.0,16.0,100,0.03,,,0.07,,2013-05-07 02:32:00,
2013-05-06 22:42:00,51.0,51.0,30.06,East,90,13.0,16.0,100,0.03,,,0.07,,2013-05-07 02:42:00,
2013-05-06 22:52:00,51.0,51.0,30.06,East,97,9.0,18.0,100,0.03,,,0.07,,2013-05-07 02:52:00,
2013-05-06 23:02:00,51.0,51.0,30.06,East,94,9.0,19.0,100,0.02,,,0.07,,2013-05-07 03:02:00,
2013-05-06 23:11:00,51.0,51.0,30.06,East,94,9.0,19.0,100,0.02,,,0.07,,2013-05-07 03:11:00,
2013-05-06 23:22:00,51.0,51.0,30.06,East,84,12.0,20.0,100,0.02,,,0.07,,2013-05-07 03:22:00,
2013-05-06 23:32:00,51.0,51.0,30.05,ENE,69,10.0,17.0,100,0.00,,,0.07,,2013-05-07 03:32:00,
2013-05-06 23:43:00,51.0,51.0,30.05,ENE,69,10.0,17.0,100,0.00,,,0.07,,2013-05-07 03:43:00,
2013-05-06 23:53:00,51.0,51.0,30.05,ENE,69,10.0,17.0,100,0.00,,,0.07,,2013-05-07 03:53:00,